Home   Weather   Fargo   Past weeks
Flag for USA

Past Weather in Fargo, North Dakota, USA — Yesterday and Last 2 Weeks

Now
42 °F

Clear.


Feels Like: 38 °F
Forecast: 59 / 42 °F
Wind: 7 mph from Southwest

Location: Hector International Airport

Current Time: Oct 19, 2019 at 5:30:24 am

Latest Report: Oct 19, 2019 at 4:53 am


Visibility: 10 mi

Pressure: 29.59 "Hg

Humidity: 89%

Dew Point: 39 °F

Location of FargoLocation

Past Weather in Fargo — Graph

°F

Fargo Temperature Yesterday

Maximum temperature yesterday: 63 °F (at 2:53 pm)
Minimum temperature yesterday: 50 °F (at 6:53 am)
Average temperature yesterday: 55 °F

High & Low Weather Summary for the Past Weeks

 TemperatureHumidityPressure
High70 °F (Oct 8, 2:53 pm)100% (Oct 5, 3:11 am)30.43 "Hg (Oct 5, 3:11 am)
Low31 °F (Oct 11, 5:53 pm)37% (Oct 7, 3:53 pm)29.39 "Hg (Oct 18, 2:53 pm)
Average43 °F83%29.81 "Hg
* Reported Oct 4 3:53 am — Oct 19 3:53 am, Fargo. Weather by CustomWeather, © 2019

Note: Actual official high and low records may vary slightly from our data, if they occured in-between our weather recording intervals... More about our weather records

Advertising

Fargo Weather History for the Previous 24 Hours

Scroll right to see more
 ConditionsComfort  
Time TempWeatherWind HumidityBarometerVisibility
3:53 am
Sat, Oct 19
43 °FClear.8 mph86%29.57 "Hg10 mi
2:53 am45 °FClear.9 mph82%29.56 "Hg10 mi
1:53 am48 °FClear.12 mph77%29.54 "Hg10 mi
12:53 am50 °FOvercast.7 mph74%29.53 "Hg10 mi
11:53 pm
Fri, Oct 18
51 °FOvercast.9 mph74%29.54 "Hg10 mi
10:53 pm51 °FPassing clouds.10 mph80%29.51 "Hg10 mi
9:53 pm50 °FClear.8 mph86%29.50 "Hg10 mi
8:53 pm50 °FClear.7 mph86%29.49 "Hg10 mi
7:53 pm55 °FPassing clouds.9 mph77%29.46 "Hg10 mi
6:53 pm59 °FMostly cloudy.9 mph67%29.44 "Hg10 mi
5:53 pm63 °FOvercast.9 mph56%29.42 "Hg10 mi
4:53 pm63 °FPartly sunny.10 mph58%29.41 "Hg10 mi
3:53 pm63 °FPartly sunny.16 mph56%29.40 "Hg10 mi
2:53 pm63 °FPassing clouds.16 mph56%29.39 "Hg10 mi
1:53 pm61 °FSunny.17 mph60%29.40 "Hg10 mi
12:53 pm59 °FSunny.17 mph62%29.41 "Hg10 mi
11:53 am57 °FSunny.15 mph64%29.43 "Hg10 mi
10:53 am54 °FSunny.23 mph69%29.45 "Hg10 mi
9:53 am52 °FSunny.20 mph72%29.46 "Hg10 mi
8:53 am50 °FSunny.16 mph74%29.47 "Hg10 mi
7:53 am50 °FSunny.18 mph74%29.47 "Hg10 mi
6:53 am50 °FClear.15 mph74%29.50 "Hg10 mi
5:53 am51 °FClear.17 mph71%29.49 "Hg10 mi
Weather by CustomWeather, © 2019

See weather overview